Regional Weather Roundup
Issued by NWS Pendleton, OR

Home | Current Version | Previous Version | Text Only | Print | Product List | Glossary On
Versions: 1 2 3 4 5 6 7 8 9 10 11 12 13 14 15 16 17 18 19 20 21 22 23 24 25 26 27 28 29 30 31 32 33 34 35 36 37 38 39 40 41 42 43 44 45 46 47 48 49 50
132
ASUS46 KPDT 210625
RWRPDT
PENDLETON REGIONAL WEATHER ROUNDUP
NATIONAL WEATHER SERVICE PENDLETON OREGON
1100 PM PDT FRI APR 20 2018

NOTE: FAIR INDICATES FEW OR NO CLOUDS BELOW 12,000 FEET WITH NO
SIGNIFICANT WEATHER AND/OR OBSTRUCTIONS TO VISIBILITY.

# INDICATES UNOFFICIAL STATION AND DATA

WAZ520-210710-
EAST SLOPES OF WASHINGTON CASCADES

CITY            SKY/WX      TMP DP  RH  WIND    PRES   REMARKS
#BULLFROG       N/A         47  37  68  CALM    N/A
#CLE ELUM HS    N/A         48  35  60  W7      30.06R
#EASTON DOT     N/A         43  35  73  CALM    N/A
#ELK HTS DOT    N/A         49  49  100 NW1     N/A
#GLENWOOD       N/A         53  34  48  S5      30.14S
#NELSON 3SW     N/A         40  35  82  CALM    30.32R
#NILE           N/A         50  35  56  N1      29.44R
#TEANAWAY 4NE   N/A         48  39  71  SW1     N/A
#TROUT LAKE 1NE N/A         50  36  58  W6      30.16R
#TROUT LAKE 1E  N/A         48  34  58  CALM    30.18R
$$

WAZ521-210710-
SIMCOE HIGHLANDS

CITY            SKY/WX      TMP DP  RH  WIND    PRES   REMARKS
#BICKLETON HS   N/A         50  24  36  W12     29.76S
#SATUS PASS DOT N/A         50  13  22  W9      N/A
#CENTERVILLE 1SWN/A         54  35  48  W12     30.08S
#GOLDENDALE 1NE N/A         56   4  12  CALM    N/A
#GOLDENDALE 4W  N/A         55  11  17  W10     30.16R
#GOODNOE HILLS  N/A         57  31  37  W17     30.02F
#LYLE 6NE       N/A         55  38  53  SW7     30.15S
#PITT 4SE       N/A         51  35  54  CALM    30.16S
$$

WAZ026-210710-
KITTITAS VALLEY

CITY            SKY/WX      TMP DP  RH  WIND    PRES   REMARKS
ELLENSBURG AP   CLOUDY      53  35  50  NW12G24 30.08S
6HR MIN TEMP:   53; 6HR MAX TEMP:   66;

#ELLENSBURG CWU N/A         53  36  52  N9      30.01S
#ELLENSBURG 3NE N/A         51  38  61  N7      28.16R
#ELLENSBURG 1E  N/A         53  36  52  NW1     30.11F
#KITTITAS 3S    N/A         52  40  63  W1      30.06S
#MANASTASH RDG  N/A         49  49  100 CALM    N/A
#ROCKY CYN DOT  N/A         51  35  54  NW7     N/A
#RYEGRASS DOT   N/A         49  33  54  CALM    N/A
$$

WAZ027-210710-
YAKIMA VALLEY

CITY            SKY/WX      TMP DP  RH  WIND    PRES   REMARKS
SUNNYSIDE AP    CLOUDY      59  26  28  W8      30.09R
YAKIMA AIRPORT  CLOUDY      61  24  24  W7      30.08S
6HR MIN TEMP:   61; 6HR MAX TEMP:   70;

YAKIMA-VAGABOND MOCLDY      55  34  45  S3      30.06S
6HR MIN TEMP:   55; 6HR MAX TEMP:   66;

#DONALD 2NE     N/A         58   2  10  SW2     28.93S
#GRANDVIEW      N/A         62  20  20  W2      30.09S
#MABTON         N/A         62  27  26  W6      30.08S
#MOXEE 2E       N/A         37  N/A N/A SW12    29.79S WCI 29
#NACHES 2SW     N/A         57  27  31  W5      30.09R
#OUTLOOK DOT    N/A         62  21  20  CALM    30.05R
#PARKER DOT     N/A         59  23  25  E3      30.08S
#TERRACE HTS    N/A         57  26  30  CALM    30.04S
#TOPPENISH      N/A         61  28  28  CALM    29.99F
#I82 S UMTANUM RN/A         56  29  35  W7      N/A
#UNION GAP DOT  N/A         63  16  16  SW6     30.11R
#W YAKIMA       N/A         57  29  34  CALM    30.06F
#WHITE SWAN 5E  N/A         59  31  34  CALM    30.08F
#WILEY CITY 3W  N/A         58  16  19  SW2     30.04F
#ZILLAH DOT     N/A         61  22  22  N1      N/A
$$

WAZ028-210710-
LOWER COLUMBIA BASIN...WASHINGTON

CITY            SKY/WX      TMP DP  RH  WIND    PRES   REMARKS
PASCO           MOCLDY      59  34  39  SW3     30.08S
6HR MIN TEMP:   58; 6HR MAX TEMP:   72;

PROSSER AWOS    N/A         61  25  25  SW14    30.12S
RICHLAND AWOS   MOCLDY      62  31  31  W5      30.08S
#BASIN CITY 5SW N/A         61  30  31  CALM    30.05R
#BENTON CITY    N/A         59  31  34  CALM    29.98S
#CONNELL 5N     N/A         55  37  51  S1      30.07S
#CONNELL 5NW    N/A         55  40  57  S1      30.01S
#ELTOPIA 6NW    N/A         58  34  40  SW1     29.04S
#KAHLOTUS       N/A         54  35  48  CALM    30.06F
#KENNEWICK 3S   N/A         60  33  36  SE2     30.08R
#PROSSER DOT    N/A         59  29  32  CALM    30.09S
#SAGEMOOR 2W    N/A         59  30  33  W7      29.93S
#TOUCHET 2S     N/A         53  46  77  CALM    30.06S
#WEST PASCO     N/A         62  34  35  CALM    30.07S
$$

WAZ029-210710-
FOOTHILLS OF THE BLUES...WASHINGTON

CITY            SKY/WX      TMP DP  RH  WIND    PRES   REMARKS
WALLA WALLA AP  PTCLDY      59  38  45  SE5     30.09S
6HR MIN TEMP:   56; 6HR MAX TEMP:   68;

#CLYDE 6NW      N/A         57  35  43  SE3     30.07S
#LOWDEN 2SE     N/A         53  46  77  CALM    30.06R
#PLEASANT VIEW 1N/A         54  35  48  S5      30.11S
#PRESCOTT       N/A         51  45  80  CALM    30.08S
#WHITMAN COLLEGEN/A         60  39  46  CALM    30.13S
#WAITSBURG 5S   N/A         53  38  57  CALM    30.18F
#WAITSBURG 6SSE N/A         55  31  40  E6      29.92F
#WAITSBURG 8N   N/A         79  N/A N/A CALM    29.85F
#WALLA WALLA 5E N/A         56  39  53  SE2     N/A
#WHITMAN MISSIONN/A         55  46  72  CALM    30.10R
$$

WAZ030-210710-
BLUE MOUNTAINS...WASHINGTON

CITY            SKY/WX      TMP DP  RH  WIND    PRES   REMARKS
#DIXIE 5SE      N/A         54  25  32  S5      30.04S
$$

ORZ009-041-WAZ024-210710-
COLUMBIA RIVER GORGE

CITY            SKY/WX      TMP DP  RH  WIND    PRES   REMARKS
HOOD RIVER AP   PTCLDY      57  34  42  W5      30.17R
THE DALLES AP   CLOUDY      62  36  38  NW10    30.14R
6HR MIN TEMP:   62; 6HR MAX TEMP:   70;

#ARLINGTON AIRPON/A         58  36  44  SW10    30.12S
#CELILO DOT     N/A         62  33  34  SW7     N/A
#LYLE           N/A         61  39  44  W9      30.15R
#MARYHILL       N/A         59  32  36  N25     N/A
#MURDOCK        N/A         59  40  49  NW2     30.11R
#RUFUS DOT      N/A         63  N/A N/A W9      N/A

$$

ORZ510-210710-
NORTH CENTRAL OREGON

CITY            SKY/WX      TMP DP  RH  WIND    PRES   REMARKS
#ANTELOPE       N/A         46  37  71  CALM    30.03S
#CHENOWITH 1W   N/A         52  36  54  NW14    N/A
#COW CYN RST AREN/A         52  N/A N/A W2      N/A
#DUFUR          N/A         52  43  71  CALM    30.11R
#DUFUR 9E       N/A         51  37  59  W2      30.18R
#GRASS VALLEY 1SN/A         50  37  61  SW6     30.15R
#KENT DOT       N/A         48  26  42  W5      N/A
#MAUPIN SCHOOL  N/A         60  39  46  W6      30.19S
#SHANIKO 5WSW   N/A         50  34  54  NW7     N/A
#SHANIKO 4NW    N/A         48  35  60  NW7     30.16R
#TYGH VALLEY 2NEN/A         59  37  44  N7      30.13R
#WAPANITIA AIRPON/A         55  39  55  W2      30.15S
#WASCO 5NE      N/A         51  39  63  CALM    30.12S
$$

ORZ511-210710-
CENTRAL OREGON

CITY            SKY/WX      TMP DP  RH  WIND    PRES   REMARKS
BEND AIRPORT    MOCLDY      52  37  56  CALM    30.19S
MADRAS AIRPORT  CLOUDY      54  32  43  SW6     30.19S
PRINEVILLE AP   MOCLDY      52  37  56  W9      30.19R
REDMOND AIRPORT CLOUDY      53  38  57  NW7     30.18R
6HR MIN TEMP:   53; 6HR MAX TEMP:   70;

#ASHWOOD SCHOOL N/A         53  36  52  CALM    30.11S
#BEND 1SW       N/A         49  36  61  SW1     N/A
#BEND-AWBREY    N/A         52  34  50  W5      30.14S
#BEND-KIM LN    N/A         51  38  61  SW2     30.10S
#CULVER         N/A         54  36  50  W7      29.98R
#CULVER 8W      N/A         53  34  48  CALM    30.16R
#LAKE BILLY CHINN/A         53  N/A N/A SW3     30.20S
#POWELL BUTTE   N/A         51  38  61  NW1     30.12F
#PRINEVILLE     N/A         54  39  57  CALM    30.24S
#PRINEVILLE 3N  N/A         51  39  63  S2      30.16R
#WARM SPRINGS   N/A         59  38  45  CALM    29.99R

$$


ORZ509-210710-
EAST SLOPES OF OREGON CASCADES

CITY            SKY/WX      TMP DP  RH  WIND    PRES   REMARKS
SISTERS AWOS    N/A         52  37  56  SW25G36 30.12F
#BLUE BOX PASS  N/A         43  N/A N/A W2      N/A
#CAMP SHERMAN   N/A         49  37  63  CALM    30.19F
#LA PINE 4NW    N/A         46  36  68  CALM    30.24S
#LAVA BUTTE DOT N/A         46  34  63  SE1     N/A
#SISTERS ODOT   N/A         51  37  59  SW13G24 N/A
#SISTERS 3N     N/A         49  34  56  NW6     30.17R
#SUNRIVER       N/A         47  38  71  S2      30.19F
#TUMALO 3W      N/A         49  38  66  N1      30.01S
#WANOGA BUTTE D N/A         41  N/A N/A NW6     N/A

$$

ORZ044-210710-
LOWER COLUMBIA BASIN...OREGON

CITY            SKY/WX      TMP DP  RH  WIND    PRES   REMARKS
HERMISTON       MOCLDY      56  39  53  S7      30.10R
6HR MIN TEMP:   56; 6HR MAX TEMP:   72;

#BOARDMAN SCHOOLN/A         61  36  39  SW6     30.09R
#BOARDMAN 8SW   N/A         56  42  59  SW6     30.11R
#ECHO 8SW       N/A         56  39  53  CALM    30.11S
#I-84 EX 198 DOTN/A         58  38  47  NE6     N/A
#IONE SCHOOL    N/A         59  36  42  SW2     30.13R
#UMATILLA       N/A         59  37  44  CALM    30.02R
$$

ORZ507-210710-
NORTHERN FOOTHILLS OF THE BLUES

CITY            SKY/WX      TMP DP  RH  WIND    PRES   REMARKS
PENDLETON AIRPT PTCLDY      52  40  63  NW3     30.11R
6HR MIN TEMP:   51; 6HR MAX TEMP:   68;

#ADAMS 3WNW     N/A         48  42  80  CALM    30.11R
#ATHENA         N/A         53  40  61  CALM    30.14R
#CAYUSE         N/A         56  41  57  SE2     30.10R
#HELIX SCHOOL   N/A         48  42  80  CALM    30.12R
#HELIX 3N       N/A         54  38  55  S7      30.12R
#HOLDMAN 5SE    N/A         49  41  74  CALM    30.10R
#HOLDMAN 6E     N/A         52  37  56  CALM    29.91S
#M-F GROVE ELEM N/A         58  36  44  CALM    30.07S
#M-FREEWATER 5SEN/A         55  39  55  E6      30.10R
#PENDLETON DNTN N/A         55  35  47  CALM    N/A
#PDT AQUATIC CTRN/A         55  36  49  CALM    30.11R
#PDT SUNRIDGE   N/A         53  44  71  CALM    30.13R
#PENDLETON 6SE  N/A         52  43  71  SE3     30.08R
#PENDLETON 7NW  N/A         51  43  74  CALM    N/A
#PILOT ROCK 1S  N/A         54  36  50  CALM    30.13R
#PILOT ROCK     N/A         53  41  64  CALM    30.13R
#TUTUILLA       N/A         50  42  74  CALM    30.18R
#UMAPINE 2E     N/A         56  44  64  SE2     30.06S

$$

ORZ508-210710-
SOUTHERN FOOTHILLS OF THE BLUES

CITY            SKY/WX      TMP DP  RH  WIND    PRES   REMARKS
#AJAX           N/A         52  31  44  CALM    30.28S
#CONDON 5W      N/A         49  30  48  CALM    30.13S
#FOSSIL SCHOOL  N/A         51  39  63  CALM    30.09R
#HEPPNER EOC    N/A         54  35  48  E1      30.06S
#HEPPNER 4NE    N/A         52  33  48  W5      30.13R
#LEXINGTON 2SE  N/A         55  41  59  CALM    30.11R
#MIKKALO        N/A         54  33  45  W5      30.24R
#OLEX 4N        N/A         56  40  55  SW10    30.11R
#RUGGS 5NE      N/A         52  31  44  VRB2    30.30S
#RUGGS 2SW      N/A         52  33  48  S1      30.15R

$$

ORZ502-503-210710-
BLUE MOUNTAINS

CITY            SKY/WX      TMP DP  RH  WIND    PRES   REMARKS
MEACHAM         CLOUDY      44  35  70  CALM    30.15R
6HR MIN TEMP:   43; 6HR MAX TEMP:   58;

#BATTLE MTN DOT N/A         47  29  49  W5      N/A
#GRANITE        N/A         36  21  54  CALM    29.83S
#HARDMAN 10S    N/A         46  34  63  CALM    30.26R
#HEPPNER 15SE   N/A         43  36  76  CALM    25.66S
#LADD CYN SMT   N/A         41  36  82  W5      N/A
#LADD CREEK ODOTN/A         46  35  65  SW1     N/A
#N POWDER DOT   N/A         46  35  65  NW3     N/A
#PIKES PEAK     N/A         54  25  32  S12     27.99S
#SUMMERVILLE 5NWN/A         51  37  59  CALM    26.77S
#TOLLGATE       N/A         41  29  62  CALM    30.17F
#TROY SCHOOL    N/A         48  41  77  CALM    29.97R
#UKIAH          N/A         46  39  76  CALM    30.09R
#WESTON 4E      N/A         50  37  61  E1      30.09S
$$

ORZ505-210710-
JOHN DAY BASIN

CITY            SKY/WX      TMP DP  RH  WIND    PRES   REMARKS
JOHN DAY        CLEAR       49  36  61  E3      30.15R
#ANTELOPE 9ESE  N/A         55  40  57  SW1     N/A
#MITCHELL 8NW   N/A         53  32  45  CALM    30.17R
#MONUMENT HS    N/A         52  40  63  CALM    30.07R
#MT. VERNON 5SE N/A         49  35  58  CALM    30.10R
$$

ORZ506-210710-
OCHOCO AND JOHN DAY HIGHLANDS

CITY            SKY/WX      TMP DP  RH  WIND    PRES   REMARKS
#HORSE RIDGE DO N/A         51  35  54  NW9     N/A
#KEYES SMT DOT  N/A         48  30  49  NW3     N/A
#PAULINA ODOT   N/A         55  30  38  W6      N/A
#PINE MTN OBS   N/A         41  33  73  NW3     N/A
#PRAIRIE CITY   N/A         41  34  76  CALM    30.29S
#SENECA         N/A         41  N/A N/A CALM    N/A
#SENECA 9NW     N/A         39  32  76  CALM    30.12S
$$

ORZ049-210710-
GRANDE RONDE VALLEY

CITY            SKY/WX      TMP DP  RH  WIND    PRES   REMARKS
LA GRANDE       CLOUDY      48  37  65  W5      30.14S
#COVE SCHOOL    N/A         47  34  60  CALM    30.12F
#COVE 6NW       N/A         44  36  73  CALM    30.13S
#ELGIN 3N       N/A         66  51  58  CALM    30.10S
#IMBLER SCHOOL  N/A         47  36  65  CALM    30.08S
#ISLAND CITY 4N N/A         50  41  71  CALM    30.22S
#LADD CYN DOT   N/A         50  37  61  SE9     N/A
#UNION 1S       N/A         47  35  63  CALM    30.12S
$$

ORZ050-210710-
WALLOWA COUNTY

CITY            SKY/WX      TMP DP  RH  WIND    PRES   REMARKS
#ENTERPRISE HS  N/A         41  33  73  CALM    30.03S
#IMNAHA SCHOOL  N/A         48  38  68  SE2     30.11S
#IMNAHA 10S     N/A         48  33  56  SW5     30.11R
#JOSEPH         N/A         43  29  57  CALM    30.32F
#JOSEPH 3N      N/A         37  28  70  CALM    30.16F
#JOSEPH 3W      N/A         40  33  76  SW5     29.98F
#LOSTINE        N/A         44  32  62  SE1     29.95S
#LOSTINE 3SE    N/A         43  32  65  W1      30.21S
#MT HOWARD 8000 N/A         37  20  50  SW2     30.21F
#PROMISE 1S     N/A         44  32  62  CALM    30.19F
#WALLOWA LAKE   N/A         43  31  62  S2      30.18S
#WALLOWA SCHOOL N/A         42  35  76  CALM    30.10S



$$



USA.gov is the U.S. government's official web portal to all federal, state and local government web resources and services.